Weather in Entebbe

Uganda     0°04′03″N   32°27′39″E
temp.,
°C
wind,
m/s
gust,
m/s
humid.,
%
clouds,
%
prec.,
mm/h
press.,
hPa
HPBL,
m
24 september, fri
fri2400:00+23wsw226962 0.0 1011288
03:00+24ssw3466100 0.0 1009402
06:00+24sse3367100 0.7 1011202
09:00+24e446490 2.4 1013409
12:00+24se446289 0.4 1013695
15:00+24sse336219 0.7 1011460
18:00+24s4463100 0.0 1010446
21:00+24nnw116267 0.1 1013254
25 september, sat
sat2500:00+23wnw226869 0.0 1013201
03:00+21nnw2276100 1.9 1012106
06:00+21ne2374100 2.0 1013303
09:00+22ne3470100 4.4 1015305
12:00+22nw1171100 0.3 1015284
15:00+23ssw3465100 0.4 1012705
18:00+23sw55685 0.1 1011560
21:00+22nnw337167 0.1 1013312
26 september, sun
sun2600:00+20nne798798 0.9 1015330
03:00+20n7883100 1.2 1012405
06:00+20n3380100 0.0 1013247
09:00+20n337898 0.1 1016393
12:00+21ese117075 0.3 1015229
15:00+22s557012 0.3 1012429
18:00+22se22695 0.0 1011378
21:00+22n237286 0.1 1013248
27 september, mon
mon2700:00+20nw348399 0.9 1014191
03:00+20nw458357 1.0 1012260
06:00+20nnw568428 0.7 1013262
09:00+20nnw4481100 2.3 1015191
12:00+22s337395 2.9 1014291
15:00+22nne0171100 3.1 1011137
18:00+22n557773 0.1 1011255
21:00+22n226711 0.1 1012172
28 september, tue
tue2800:00+21nnw337310 0.1 1013136
03:00+20nw458156 0.1 1011250
06:00+20nw338398 0.1 1012235
09:00+21n237618 0.1 1014284
12:00+24e336599 0.0 1012277
15:00+25se546465 0.0 1009302
18:00+25ese446742 0.0 1009296
21:00+24n22685 0.0 101098